Location: Bakov nad Jizerou
(50.4784°N, 14.9394°E)
Time: 17:11:34
(UTC+00:00)

Cosmos 2322 - Pass Details

Date: 24 October 2021
Orbit: 841 x 854 km, 71.0° (Epoch: 04 December)

Event Time Altitude Azimuth Distance (km) Brightness Sun altitude
Rises 18:44:37 0° 202° (SSW) 3,410 6.9 -28.2°
Reaches altitude 10° 18:47:03 10° 201° (SSW) 2,478 6.2 -28.6°
Enters shadow 18:49:21 25° 198° (SSW) 1,641 5.1 -28.9°
